Home   Weather   San Buenaventura   Past weeks

Flag for USA Past Weather in San Buenaventura, California, USA — Yesterday and Last 2 Weeks

Now
72 °F

Clear.


Feels Like: 73 °F
Forecast: 65 / 78 °F
Wind: 6 mph from West

Location: Oxnard Airport

Current Time: Sep 28, 2016 at 8:30:27 PM

Latest Report: Sep 28, 2016 at 7:51 PM


Visibility: 10 mi

Pressure: 29.93 "Hg

Humidity: 78%

Dew Point: 65 °F

Location of San BuenaventuraLocation

Past Weather in San Buenaventura — Graph

°F

San Buenaventura Temperature Yesterday

Maximum temperature yesterday: 89 °F (at 10:51 AM)
Minimum temperature yesterday: 68 °F (at 1:51 AM)
Average temperature yesterday: 79 °F

High & Low Weather Summary for the Past Weeks

 TemperatureHumidityPressure
High102 °F (Sep 26, 11:51 AM)100% (Sep 18, 6:51 AM)30.08 "Hg (Sep 18, 6:51 AM)
Low54 °F (Sep 14, 5:51 AM)8% (Sep 25, 11:51 AM)29.81 "Hg (Sep 22, 4:51 PM)
Average70 °F64%29.92 "Hg
* Reported Sep 13 6:51 PM — Sep 28 6:51 PM, San Buenaventura, Weather by CustomWeather, © 2016

Note: Actual official high and low records may vary slightly from our data, if they occured in-between our weather recording intervals... More about our weather records

Advertising

San Buenaventura Weather History for the Previous 24 Hours

Scroll right to see more
 ConditionsComfort  
Time TempWeatherWind HumidityBarometerVisibility
6:51 PM
Wed, Sep 28
75 °FClear.7 mph69%29.91 "Hg10 mi
5:51 PM78 °FSunny.7 mph50%29.88 "Hg10 mi
4:51 PM78 °FSunny.7 mph54%29.88 "Hg10 mi
3:51 PM84 °FSunny.8 mph41%29.89 "Hg10 mi
2:51 PM80 °FSunny.9 mph49%29.89 "Hg10 mi
1:51 PM80 °FSunny.9 mph51%29.90 "Hg10 mi
12:51 PM79 °FSunny.7 mph54%29.92 "Hg10 mi
11:51 AM81 °FSunny.6 mph45%29.92 "Hg10 mi
10:51 AM81 °FSunny.6 mph49%29.93 "Hg10 mi
9:51 AM81 °FSunny.No wind44%29.93 "Hg10 mi
8:51 AM78 °FPassing clouds.No wind48%29.92 "Hg10 mi
7:51 AM74 °FSunny.No wind64%29.90 "Hg10 mi
6:51 AM70 °FSunny.No wind68%29.89 "Hg10 mi
5:51 AM69 °FClear.No wind68%29.88 "Hg10 mi
4:51 AM70 °FClear.3 mph68%29.88 "Hg9 mi
3:51 AM73 °FClear.3 mph57%29.87 "Hg10 mi
2:51 AM72 °FClear.6 mph49%29.87 "Hg10 mi
1:51 AM72 °FClear.No wind48%29.87 "Hg10 mi
12:51 AM73 °FClear.7 mph46%29.86 "Hg10 mi
11:51 PM
Tue, Sep 27
75 °FClear.6 mph43%29.86 "Hg10 mi
10:51 PM75 °FClear.5 mph43%29.86 "Hg10 mi
9:51 PM75 °FClear.6 mph47%29.86 "Hg10 mi
8:51 PM78 °FClear.No wind40%29.86 "Hg10 mi
Weather by CustomWeather, © 2016

See weather overviewHow to use our weather pages